CES5532 ZSFZ-ZSSS

Flight info

Callsign CES5532
Flight time N/A
Altitude 24600
Route LJG B221 DST/K0883S1010 B221 PEXIB/K0883S1070 B221 SHZ G204 JTN
Aircraft B77W/H-SDE1E2E3FGHIJ2J3J4J5M1RWXY/LB1D1

Departure

Time 2026-04-15 10:42
Airport Fuzhou Changle International Airport (ZSFZ)

Arrival

Time N/A
Airport Shanghai Hongqiao International Airport (ZSSS)
Time Latitude Longitude Altitude Speed Heading
2026-04-15 10:23 25.93180 119.66708 28 ft 0 kts 116°
2026-04-15 10:34 25.93183 119.66703 28 ft 3 kts 116°
2026-04-15 10:34 25.93195 119.66676 26 ft 4 kts 116°
2026-04-15 10:35 25.93207 119.66652 27 ft 4 kts 133°
2026-04-15 10:35 25.93228 119.66639 26 ft 4 kts 182°
2026-04-15 10:35 25.93253 119.66646 26 ft 4 kts 207°
2026-04-15 10:35 25.93274 119.66658 27 ft 1 kts 207°
2026-04-15 10:36 25.93275 119.66659 27 ft 0 kts 207°
2026-04-15 10:37 25.93265 119.66653 27 ft 9 kts 207°
2026-04-15 10:38 25.93168 119.66598 28 ft 17 kts 207°
2026-04-15 10:38 25.93065 119.66539 28 ft 17 kts 207°
2026-04-15 10:38 25.92958 119.66479 28 ft 15 kts 208°
2026-04-15 10:38 25.92939 119.66423 28 ft 9 kts 278°
2026-04-15 10:39 25.92977 119.66314 28 ft 12 kts 278°
2026-04-15 10:39 25.92921 119.66251 28 ft 18 kts 207°
2026-04-15 10:39 25.92773 119.66166 28 ft 25 kts 207°
2026-04-15 10:39 25.92615 119.66077 28 ft 27 kts 206°
2026-04-15 10:40 25.92435 119.65977 28 ft 28 kts 206°
2026-04-15 10:40 25.92264 119.65879 28 ft 27 kts 207°
2026-04-15 10:40 25.92100 119.65788 28 ft 26 kts 206°
2026-04-15 10:40 25.91987 119.65708 28 ft 10 kts 247°
2026-04-15 10:41 25.92004 119.65633 28 ft 10 kts 296°
2026-04-15 10:41 25.92037 119.65566 28 ft 8 kts 312°
2026-04-15 10:41 25.92088 119.65562 28 ft 8 kts 17°
2026-04-15 10:41 25.92137 119.65586 28 ft 9 kts 27°
2026-04-15 10:42 25.92413 119.65742 28 ft 91 kts 27°
2026-04-15 10:42 25.93237 119.66211 42 ft 171 kts 28°
2026-04-15 10:42 25.94300 119.66829 958 ft 165 kts 27°
2026-04-15 10:42 25.95372 119.67376 1970 ft 173 kts 27°
2026-04-15 10:43 25.96521 119.67941 2729 ft 191 kts 26°
2026-04-15 10:43 25.97821 119.68617 3163 ft 224 kts 26°
2026-04-15 10:43 25.99324 119.69371 3149 ft 239 kts 24°
2026-04-15 10:43 26.00849 119.70120 3368 ft 245 kts 25°
2026-04-15 10:44 26.02400 119.70927 4235 ft 255 kts 25°
2026-04-15 10:44 26.04024 119.71791 5199 ft 261 kts 23°
2026-04-15 10:44 26.05712 119.72638 6170 ft 268 kts 22°
2026-04-15 10:44 26.07377 119.73502 7410 ft 260 kts 22°
2026-04-15 10:45 26.09028 119.74367 8385 ft 267 kts 21°
2026-04-15 10:45 26.10806 119.75208 8903 ft 292 kts 18°
2026-04-15 10:45 26.12728 119.76045 9805 ft 298 kts 17°
2026-04-15 10:45 26.14687 119.76871 10665 ft 309 kts 17°
2026-04-15 10:46 26.16789 119.77744 11028 ft 338 kts 16°
2026-04-15 10:46 26.19109 119.78688 11275 ft 371 kts 17°
2026-04-15 10:46 26.21596 119.79710 11891 ft 388 kts 17°
2026-04-15 10:46 26.24155 119.80779 12759 ft 397 kts 17°
2026-04-15 10:47 26.26758 119.81878 13730 ft 403 kts 18°
2026-04-15 10:47 26.29361 119.82985 14613 ft 408 kts 17°
2026-04-15 10:47 26.32025 119.84122 15531 ft 412 kts 17°
2026-04-15 10:47 26.34715 119.85271 16485 ft 416 kts 17°
2026-04-15 10:48 26.37434 119.86433 17385 ft 422 kts 17°
2026-04-15 10:48 26.40193 119.87611 18300 ft 426 kts 17°
2026-04-15 10:48 26.42967 119.88797 19116 ft 429 kts 17°
2026-04-15 10:48 26.45772 119.89996 19895 ft 434 kts 17°
2026-04-15 10:49 26.48613 119.91211 20683 ft 439 kts 16°
2026-04-15 10:49 26.51475 119.92435 21486 ft 442 kts 16°
2026-04-15 10:49 26.54351 119.93668 22383 ft 443 kts 16°
2026-04-15 10:49 26.57222 119.94900 23437 ft 440 kts 15°
2026-04-15 10:50 26.60076 119.96126 24199 ft 440 kts 15°
2026-04-15 10:50 26.62941 119.97354 24577 ft 439 kts 15°
2026-04-15 10:50 26.65799 119.98581 24579 ft 440 kts 15°
2026-04-15 10:50 26.68653 119.99806 24578 ft 440 kts 15°
2026-04-15 10:51 26.71513 120.01034 24580 ft 441 kts 15°
2026-04-15 10:51 26.74380 120.02265 24575 ft 442 kts 15°
2026-04-15 10:51 26.77250 120.03498 24573 ft 442 kts 15°
2026-04-15 10:51 26.80120 120.04733 24575 ft 442 kts 15°
2026-04-15 10:52 26.82957 120.05947 24601 ft 442 kts 15°
2026-04-15 10:52 26.85826 120.07184 24585 ft 443 kts 15°
2026-04-15 10:52 26.88702 120.08428 24596 ft 443 kts 15°
2026-04-15 10:52 26.91579 120.09673 24585 ft 443 kts 15°
2026-04-15 10:53 26.94461 120.10916 24584 ft 443 kts 15°
2026-04-15 10:53 26.97339 120.12154 24585 ft 443 kts 15°
2026-04-15 10:53 26.99835 120.13231 24585 ft 443 kts 15°
2026-04-15 10:53 27.02709 120.14475 24596 ft 443 kts 15°
2026-04-15 10:54 27.05578 120.15720 24592 ft 441 kts 15°
2026-04-15 10:54 27.08436 120.16960 24601 ft 441 kts 15°
2026-04-15 10:54 27.11296 120.18208 24594 ft 442 kts 17°
2026-04-15 10:54 27.14091 120.19696 24593 ft 447 kts 24°
2026-04-15 10:55 27.16764 120.21521 24617 ft 451 kts 27°
2026-04-15 10:55 27.18519 120.22774 24603 ft 452 kts 27°